EW6430 Weather Reports


time (UTC)temp
C
wind
direction
speed
KPH
gust
KPH
rain 1hr
cm
rain 24hr
cm
rain mn
cm
humidity
%
barometer
mb
20260831185818 18 298 0.0 0.0 0.00 0.00 0.00 90 1014.3
20260831185306 18 298 0.0 0.0 0.00 0.00 0.00 89 1014.2
20260831184752 18 298 0.0 0.0 0.00 0.00 0.00 89 1014.2
20260831184525 18 298 0.0 0.0 0.00 0.00 0.00 89 1013.7
20260831184242 18 298 0.0 0.0 0.00 0.00 0.00 88 1014.2
20260831183728 18 298 0.0 0.0 0.00 0.00 0.00 88 1014.2
20260831183054 18 298 0.0 0.0 0.00 0.00 0.00 87 1013.6
20260831182659 19 298 0.0 0.0 0.00 0.00 0.00 86 1014.1
20260831182147 19 298 0.0 0.0 0.00 0.00 0.00 86 1014.1
20260831181635 19 298 0.0 0.0 0.00 0.00 0.00 86 1014.1
20260831181508 19 298 0.0 0.0 0.00 0.00 0.00 85 1013.5
20260831181121 20 298 0.0 0.0 0.00 0.00 0.00 85 1014.0
20260831180608 20 298 0.0 1.6 0.00 0.00 0.00 84 1014.0
20260831180033 20 298 0.0 1.6 0.00 0.00 0.00 83 1013.4
20260831175542 20 298 0.0 3.2 0.00 0.00 0.00 82 1013.9
20260831175018 21 298 0.0 3.2 0.00 0.00 0.00 81 1013.7
20260831174548 21 298 0.0 3.2 0.00 0.00 0.00 80 1013.1
20260831174508 21 298 0.0 3.2 0.00 0.00 0.00 80 1013.6
20260831173952 21 298 0.0 1.6 0.00 0.00 0.00 79 1013.6
20260831173438 22 298 0.0 3.2 0.00 0.00 0.00 77 1013.5
20260831173006 22 298 0.0 3.2 0.00 0.00 0.00 76 1012.9
20260831172923 22 298 0.0 4.8 0.00 0.00 0.00 76 1013.4
20260831172415 22 298 0.0 4.8 0.00 0.00 0.00 76 1013.3
20260831171917 22 298 1.6 8.0 0.00 0.00 0.00 76 1013.3
20260831171541 22 298 0.0 8.0 0.00 0.00 0.00 75 1012.7
20260831170845 23 322 1.6 9.7 0.00 0.00 0.00 75 1013.2
20260831170331 23 306 1.6 9.7 0.00 0.00 0.00 74 1013.2
20260831165818 23 309 3.2 9.7 0.00 0.00 0.00 73 1013.2
20260831165305 23 326 4.8 14.5 0.00 0.00 0.00 72 1013.1
20260831164521 23 319 6.4 14.5 0.00 0.00 0.00 71 1012.5
20260831163718 24 310 3.2 6.4 0.00 0.00 0.00 70 1013.0
20260831163158 24 315 3.2 8.0 0.00 0.00 0.00 69 1013.0
20260831163030 24 315 1.6 8.0 0.00 0.00 0.00 69 1012.5
20260831162642 25 312 1.6 6.4 0.00 0.00 0.00 69 1012.9
20260831161616 25 313 1.6 4.8 0.00 0.00 0.00 68 1012.9
20260831161552 25 313 0.0 4.8 0.00 0.00 0.00 68 1012.4
20260831161101 25 313 1.6 4.8 0.00 0.00 0.00 68 1012.8
20260831160031 25 315 1.6 8.0 0.00 0.00 0.00 67 1012.8
20260831160006 25 313 1.6 8.0 0.00 0.00 0.00 68 1012.4
20260831155519 25 315 1.6 4.8 0.00 0.00 0.00 68 1012.8
20260831154532 25 317 1.6 6.4 0.00 0.00 0.00 68 1012.3
20260831154449 25 317 3.2 6.4 0.00 0.00 0.00 67 1012.9
20260831153934 25 322 3.2 6.4 0.00 0.00 0.00 67 1012.9
20260831153419 25 309 1.6 4.8 0.00 0.00 0.00 67 1012.9
20260831153148 25 309 1.6 4.8 0.00 0.00 0.00 68 1012.4
20260831152908 25 309 1.6 4.8 0.00 0.00 0.00 67 1012.9
20260831152352 25 309 1.6 8.0 0.00 0.00 0.00 66 1012.9
20260831151838 26 309 3.2 8.0 0.00 0.00 0.00 66 1012.9
20260831151510 25 309 1.6 9.7 0.00 0.00 0.00 64 1012.4
20260831150842 26 329 3.2 8.0 0.00 0.00 0.00 64 1012.9
20260831150321 26 331 3.2 6.4 0.00 0.00 0.00 65 1012.9
20260831150153 26 331 1.6 8.0 0.00 0.00 0.00 65 1012.5
20260831145808 26 261 3.2 12.9 0.00 0.00 0.00 65 1013.0
20260831145257 26 325 3.2 9.7 0.00 0.00 0.00 65 1013.0
20260831144744 26 302 3.2 12.9 0.00 0.00 0.00 66 1013.0
20260831144514 25 312 1.6 12.9 0.00 0.00 0.00 65 1012.5
20260831144250 26 317 3.2 12.9 0.00 0.00 0.00 66 1013.0
20260831143728 26 316 3.2 8.0 0.00 0.00 0.00 65 1013.1
20260831143059 26 311 3.2 16.1 0.00 0.00 0.00 67 1012.6
20260831142716 26 306 3.2 16.1 0.00 0.00 0.00 65 1013.0
20260831141657 25 240 1.6 8.0 0.00 0.00 0.00 69 1013.0
20260831141538 25 305 1.6 8.0 0.00 0.00 0.00 68 1012.5
20260831141155 25 247 1.6 6.4 0.00 0.00 0.00 68 1013.0
20260831140656 25 314 3.2 8.0 0.00 0.00 0.00 68 1013.0
20260831140152 25 316 4.8 14.5 0.00 0.00 0.00 67 1013.0
20260831140128 25 316 3.2 14.5 0.00 0.00 0.00 67 1012.5
20260831135639 25 241 3.2 14.5 0.00 0.00 0.00 67 1013.0
20260831135140 26 270 3.2 9.7 0.00 0.00 0.00 67 1013.1
20260831134634 26 307 3.2 9.7 0.00 0.00 0.00 69 1013.1
20260831134506 25 310 1.6 9.7 0.00 0.00 0.00 68 1012.6
20260831133550 25 231 3.2 11.3 0.00 0.00 0.00 68 1013.2
20260831133041 25 236 3.2 14.5 0.00 0.00 0.00 69 1013.2
20260831133027 25 236 1.6 14.5 0.00 0.00 0.00 69 1012.7
20260831132531 25 230 4.8 14.5 0.00 0.00 0.00 67 1013.2
20260831132029 25 263 4.8 12.9 0.00 0.00 0.00 68 1013.2
20260831131613 25 254 1.6 9.7 0.00 0.00 0.00 71 1012.6
20260831131523 25 254 4.8 9.7 0.00 0.00 0.00 70 1013.2
20260831131015 25 271 3.2 6.4 0.00 0.00 0.00 71 1013.2
20260831130519 25 311 3.2 11.3 0.00 0.00 0.00 72 1013.3
20260831130040 24 232 3.2 11.3 0.00 0.00 0.00 74 1012.8
20260831125959 25 211 3.2 8.0 0.00 0.00 0.00 75 1013.3
20260831125457 24 304 3.2 12.9 0.00 0.00 0.00 75 1013.4
20260831124933 24 262 3.2 12.9 0.00 0.00 0.00 75 1013.5
20260831124608 23 314 1.6 8.0 0.00 0.00 0.00 75 1013.0
20260831124418 23 303 1.6 8.0 0.00 0.00 0.00 76 1013.5
20260831123908 23 315 1.6 8.0 0.00 0.00 0.00 75 1013.5
20260831123359 23 293 1.6 11.3 0.00 0.00 0.00 75 1013.4
20260831123042 23 275 1.6 11.3 0.00 0.00 0.00 75 1012.9
20260831122859 23 230 1.6 11.3 0.00 0.00 0.00 75 1013.4
20260831122350 23 279 1.6 12.9 0.00 0.00 0.00 75 1013.4
20260831121838 23 254 3.2 12.9 0.00 0.00 0.00 74 1013.4
20260831121509 23 247 1.6 12.9 0.00 0.00 0.00 74 1012.8
20260831121326 23 302 3.2 12.9 0.00 0.00 0.00 73 1013.3
20260831120814 23 319 3.2 14.5 0.00 0.00 0.00 73 1013.4
20260831120315 23 267 3.2 14.5 0.00 0.00 0.00 74 1013.3
20260831120034 23 250 1.6 12.9 0.00 0.00 0.00 74 1012.7
20260831115751 23 242 4.8 12.9 0.00 0.00 0.00 72 1013.2
20260831115237 23 239 3.2 11.3 0.00 0.00 0.00 75 1013.2
20260831114726 23 248 3.2 8.0 0.00 0.00 0.00 75 1013.2
20260831114559 23 248 3.2 8.0 0.00 0.00 0.00 74 1012.6
20260831114216 23 234 1.6 8.0 0.00 0.00 0.00 75 1013.2
20260831113703 23 119 1.6 4.8 0.00 0.00 0.00 77 1013.2
20260831113151 23 113 1.6 4.8 0.00 0.00 0.00 77 1013.3
20260831113023 22 112 0.0 3.2 0.00 0.00 0.00 78 1012.7
20260831112637 22 112 1.6 3.2 0.00 0.00 0.00 77 1013.2
20260831112127 22 112 1.6 4.8 0.00 0.00 0.00 77 1013.2
20260831111613 22 112 1.6 4.8 0.00 0.00 0.00 77 1013.3
20260831111550 22 112 0.0 3.2 0.00 0.00 0.00 77 1012.7
20260831111059 22 112 1.6 4.8 0.00 0.00 0.00 78 1013.3
20260831110556 22 112 3.2 4.8 0.00 0.00 0.00 77 1013.2
20260831110047 22 112 1.6 4.8 0.00 0.00 0.00 80 1013.2
20260831110010 21 112 1.6 4.8 0.00 0.00 0.00 80 1012.6
20260831105524 22 112 0.0 3.2 0.00 0.00 0.00 81 1013.1
20260831105011 21 111 0.0 1.6 0.00 0.00 0.00 82 1013.0
20260831104538 21 111 0.0 1.6 0.00 0.00 0.00 81 1012.5
20260831104457 21 111 0.0 1.6 0.00 0.00 0.00 81 1013.1
20260831103935 21 111 0.0 1.6 0.00 0.00 0.00 82 1013.1
20260831103418 21 111 0.0 1.6 0.00 0.00 0.00 83 1013.2
20260831103040 21 111 0.0 1.6 0.00 0.00 0.00 84 1012.6
20260831102347 21 111 0.0 3.2 0.00 0.00 0.00 85 1013.2
20260831101837 21 111 1.6 3.2 0.00 0.00 0.00 86 1013.2
20260831101503 21 111 0.0 3.2 0.00 0.00 0.00 86 1012.7
20260831101322 21 111 1.6 3.2 0.00 0.00 0.00 86 1013.3
20260831100810 21 111 0.0 1.6 0.00 0.00 0.00 86 1013.3
20260831100253 21 111 0.0 1.6 0.00 0.00 0.00 86 1013.4
20260831100028 21 111 0.0 1.6 0.00 0.00 0.00 86 1012.9
20260831095738 21 111 0.0 1.6 0.00 0.00 0.00 85 1013.5
20260831095224 21 111 0.0 1.6 0.00 0.00 0.00 85 1013.5
20260831094711 21 111 0.0 1.6 0.00 0.00 0.00 84 1013.5
20260831094543 21 111 0.0 0.0 0.00 0.00 0.00 84 1012.9
20260831094155 21 111 0.0 1.6 0.00 0.00 0.00 83 1013.4
20260831093638 21 111 0.0 3.2 0.00 0.00 0.00 80 1013.5
20260831093122 21 111 0.0 3.2 0.00 0.00 0.00 79 1013.4
20260831093101 21 111 0.0 1.6 0.00 0.00 0.00 79 1012.9
20260831092611 21 111 0.0 3.2 0.00 0.00 0.00 79 1013.4
20260831091547 21 113 1.6 3.2 0.00 0.00 0.00 80 1013.3
20260831091528 21 113 0.0 3.2 0.00 0.00 0.00 80 1012.7
20260831091050 21 113 0.0 3.2 0.00 0.00 0.00 82 1013.3
20260831090531 21 113 0.0 3.2 0.00 0.00 0.00 83 1013.2
20260831090059 21 113 0.0 3.2 0.00 0.00 0.00 84 1012.7
20260831090022 21 113 0.0 3.2 0.00 0.00 0.00 84 1013.2
20260831085505 21 113 0.0 3.2 0.00 0.00 0.00 85 1013.2
20260831084527 21 110 1.6 3.2 0.00 0.00 0.00 83 1012.5
20260831084437 21 110 0.0 3.2 0.00 0.00 0.00 83 1013.1
20260831083926 21 110 0.0 0.0 0.00 0.00 0.00 82 1013.0
20260831083412 21 110 0.0 0.0 0.00 0.00 0.00 81 1013.0
20260831083141 21 110 0.0 0.0 0.00 0.00 0.00 80 1012.4
20260831082900 21 110 0.0 1.6 0.00 0.00 0.00 79 1012.9
20260831082344 21 110 1.6 9.7 0.00 0.00 0.00 78 1012.8
20260831081832 21 110 1.6 9.7 0.00 0.00 0.00 75 1012.9
20260831081559 21 110 3.2 6.4 0.00 0.00 0.00 75 1012.4
20260831081316 21 115 3.2 9.7 0.00 0.00 0.00 75 1012.9
20260831080801 21 115 3.2 9.7 0.00 0.00 0.00 75 1013.0
20260831080246 21 125 3.2 6.4 0.00 0.00 0.00 75 1013.0
20260831080025 21 125 1.6 6.4 0.00 0.00 0.00 75 1012.5
20260831075732 21 123 3.2 8.0 0.00 0.00 0.00 75 1013.0
20260831075218 21 128 3.2 8.0 0.00 0.00 0.00 74 1012.9
20260831074704 21 132 4.8 8.0 0.00 0.00 0.00 74 1013.0
20260831074535 21 132 1.6 8.0 0.00 0.00 0.00 74 1012.4
20260831073633 21 116 4.8 9.7 0.00 0.00 0.00 73 1013.1
20260831073119 21 161 4.8 9.7 0.00 0.00 0.00 72 1013.2
20260831073054 21 161 1.6 9.7 0.00 0.00 0.00 72 1012.7
20260831072606 21 174 3.2 8.0 0.00 0.00 0.00 73 1013.3
20260831071545 21 167 3.2 6.4 0.00 0.00 0.00 74 1013.2
20260831071520 21 167 1.6 6.4 0.00 0.00 0.00 74 1012.7
20260831071029 21 117 4.8 6.4 0.00 0.00 0.00 74 1013.1
20260831070519 21 140 3.2 6.4 0.00 0.00 0.00 73 1013.1
20260831070056 21 99 3.2 6.4 0.00 0.00 0.00 73 1012.7
20260831070014 21 98 1.6 6.4 0.00 0.00 0.00 74 1013.2
20260831065504 21 191 1.6 4.8 0.00 0.00 0.00 75 1013.3
20260831064949 20 191 4.8 11.3 0.00 0.00 0.00 74 1013.4
20260831064516 20 218 1.6 9.7 0.00 0.00 0.00 75 1012.9
20260831064438 20 218 4.8 11.3 0.00 0.00 0.00 75 1013.4
20260831063933 20 163 4.8 11.3 0.00 0.00 0.00 76 1013.5
20260831063424 20 113 4.8 11.3 0.00 0.00 0.00 77 1013.5
20260831063101 19 144 3.2 11.3 0.00 0.00 0.00 80 1013.0
20260831062923 19 159 4.8 11.3 0.00 0.00 0.00 81 1013.4
20260831062419 19 126 3.2 11.3 0.00 0.00 0.00 84 1013.5
20260831061913 18 175 1.6 6.4 0.00 0.00 0.00 89 1013.5
20260831061542 17 184 1.6 6.4 0.00 0.00 0.00 92 1013.0
20260831061404 18 287 0.0 4.8 0.00 0.00 0.00 93 1013.6
20260831060852 17 291 0.0 3.2 0.00 0.00 0.00 96 1013.6
20260831060348 17 296 0.0 3.2 0.00 0.00 0.00 96 1013.5
20260831060129 16 296 0.0 3.2 0.00 0.00 0.00 96 1012.9
20260831055846 16 296 1.6 3.2 0.00 0.00 0.00 97 1013.4
20260831055342 16 296 1.6 3.2 0.00 0.00 0.00 97 1013.5
20260831054514 16 296 0.0 3.2 0.00 0.00 0.00 97 1013.0
20260831054336 16 296 0.0 0.0 0.00 0.00 0.00 97 1013.6
20260831053826 16 296 0.0 0.0 0.00 0.00 0.00 97 1013.5
20260831053312 16 296 0.0 0.0 0.00 0.00 0.00 97 1013.6
20260831053047 16 296 0.0 0.0 0.00 0.00 0.00 97 1013.1
20260831052803 16 296 0.0 3.2 0.00 0.00 0.00 97 1013.5
20260831052307 16 296 0.0 3.2 0.00 0.00 0.00 97 1013.5
20260831051756 15 296 0.0 3.2 0.00 0.00 0.00 97 1013.5
20260831051528 15 296 0.0 3.2 0.00 0.00 0.00 97 1013.0
20260831051244 15 296 1.6 3.2 0.00 0.00 0.00 97 1013.5
20260831050727 15 296 0.0 3.2 0.00 0.00 0.00 97 1013.5
20260831050221 15 296 0.0 1.6 0.00 0.00 0.00 97 1013.5
20260831050056 15 296 0.0 1.6 0.00 0.00 0.00 97 1013.0
20260831045200 15 296 0.0 1.6 0.00 0.00 0.00 97 1013.5
20260831044645 15 296 0.0 1.6 0.00 0.00 0.00 97 1013.4
20260831044622 14 296 0.0 1.6 0.00 0.03 0.00 97 1013.0
20260831043628 14 296 0.0 1.6 0.00 0.00 0.00 97 1013.4
20260831043127 14 296 0.0 0.0 0.00 0.00 0.00 97 1013.4
20260831043103 13 296 0.0 0.0 0.00 0.03 0.00 97 1013.0
20260831042615 14 296 0.0 0.0 0.00 0.00 0.00 97 1013.5
20260831041544 13 296 0.0 3.2 0.00 0.03 0.00 97 1013.0
20260831040529 13 296 0.0 0.0 0.00 0.03 0.00 97 1013.5
20260831040054 13 296 0.0 0.0 0.00 0.03 0.00 97 1013.1
20260831035507 13 296 0.0 0.0 0.00 0.03 0.00 97 1013.6
20260831034951 13 296 0.0 0.0 0.00 0.03 0.00 97 1013.6
20260831034519 13 296 0.0 0.0 0.00 0.03 0.00 97 1013.1
20260831033929 13 296 0.0 0.0 0.00 0.03 0.00 96 1013.6
20260831033417 13 296 0.0 0.0 0.00 0.03 0.00 96 1013.6
20260831033044 13 296 0.0 0.0 0.00 0.03 0.00 96 1013.2
20260831032351 13 296 0.0 0.0 0.00 0.03 0.00 96 1013.6
20260831031852 13 296 0.0 0.0 0.00 0.03 0.00 96 1013.7
20260831031521 13 296 0.0 0.0 0.00 0.03 0.00 96 1013.3
20260831031337 13 296 0.0 0.0 0.00 0.03 0.00 96 1013.7
20260831030826 13 296 0.0 0.0 0.00 0.03 0.00 96 1013.7
20260831030315 13 296 0.0 0.0 0.00 0.03 0.00 96 1013.6
20260831030050 13 296 0.0 0.0 0.00 0.03 0.00 96 1013.1
20260831025805 13 296 0.0 0.0 0.00 0.03 0.00 96 1013.7
20260831025253 13 296 0.0 0.0 0.00 0.03 0.00 96 1013.7
20260831024738 13 296 0.0 0.0 0.00 0.03 0.00 96 1013.6
20260831024510 13 296 0.0 0.0 0.00 0.03 0.00 96 1013.2
20260831024226 13 296 0.0 0.0 0.00 0.03 0.00 96 1013.6
20260831023717 13 296 0.0 0.0 0.00 0.03 0.00 96 1013.7
20260831023202 13 296 0.0 0.0 0.00 0.03 0.00 96 1013.9
20260831023034 13 296 0.0 0.0 0.00 0.03 0.00 96 1013.4
20260831021619 14 296 0.0 0.0 0.00 0.03 0.00 95 1013.9
20260831021554 13 296 0.0 0.0 0.00 0.03 0.00 95 1013.4
20260831021104 14 296 0.0 1.6 0.00 0.03 0.00 95 1014.0
20260831020546 14 296 0.0 1.6 0.00 0.03 0.00 96 1014.0
20260831020033 14 296 0.0 0.0 0.00 0.03 0.00 95 1014.0
20260831020006 13 296 0.0 0.0 0.00 0.03 0.00 95 1013.4
20260831015519 14 296 0.0 0.0 0.00 0.03 0.00 95 1014.0
20260831015006 14 296 0.0 0.0 0.00 0.03 0.00 95 1014.0
20260831014534 14 296 0.0 0.0 0.00 0.03 0.00 95 1013.5
20260831014445 14 296 0.0 0.0 0.00 0.03 0.00 95 1014.1
20260831013944 14 296 0.0 0.0 0.00 0.03 0.00 95 1014.1
20260831013431 14 296 0.0 0.0 0.00 0.03 0.00 95 1014.0
20260831013057 14 296 0.0 0.0 0.00 0.03 0.00 95 1013.5
20260831012402 14 296 0.0 1.6 0.00 0.03 0.00 95 1014.0
20260831011514 14 296 1.6 3.2 0.00 0.03 0.00 95 1013.4
20260831010821 15 296 0.0 0.0 0.00 0.03 0.00 95 1013.9
20260831010134 14 296 0.0 0.0 0.00 0.03 0.00 95 1013.5
20260831005748 15 296 0.0 0.0 0.00 0.03 0.00 95 1014.0
20260831005236 15 296 0.0 0.0 0.00 0.03 0.00 95 1014.0
20260831004722 15 296 0.0 0.0 0.00 0.03 0.00 95 1014.1
20260831004555 15 296 0.0 0.0 0.00 0.03 0.00 95 1013.6
20260831004208 15 296 0.0 0.0 0.00 0.03 0.00 95 1014.1
20260831003143 15 296 0.0 0.0 0.00 0.03 0.00 94 1014.2
20260831003014 15 296 0.0 0.0 0.00 0.03 0.00 94 1013.7
20260831002626 15 296 0.0 0.0 0.00 0.03 0.00 94 1014.2
20260831002112 15 296 0.0 0.0 0.00 0.03 0.00 94 1014.3
20260831001557 15 296 0.0 0.0 0.00 0.03 0.00 94 1014.2
20260831001534 15 296 0.0 0.0 0.00 0.03 0.00 94 1013.7
20260831001042 15 296 0.0 0.0 0.00 0.03 0.00 94 1014.3
20260831000541 15 296 0.0 0.0 0.00 0.03 0.00 94 1014.4
20260831000056 15 296 0.0 0.0 0.00 0.03 0.00 94 1013.9
20260831000019 15 296 0.0 0.0 0.00 0.03 0.00 94 1014.4
20260830235503 15 296 0.0 0.0 0.00 0.03 0.00 94 1014.4
20260830234948 15 296 0.0 0.0 0.00 0.03 0.00 94 1014.4
20260830234510 15 296 0.0 0.0 0.00 0.03 0.00 93 1013.8
20260830234433 15 296 0.0 0.0 0.00 0.03 0.00 93 1014.3
20260830233919 15 296 0.0 0.0 0.00 0.03 0.00 93 1014.3
20260830233406 15 296 0.0 0.0 0.00 0.03 0.00 93 1014.3
20260830233036 15 296 0.0 0.0 0.00 0.03 0.00 93 1013.8
20260830232853 15 296 0.0 0.0 0.00 0.03 0.00 93 1014.3
20260830232340 16 296 0.0 0.0 0.00 0.03 0.00 93 1014.3
20260830231843 16 296 0.0 0.0 0.00 0.03 0.00 93 1014.3
20260830231610 15 296 0.0 0.0 0.00 0.03 0.00 93 1013.8
20260830230805 16 296 0.0 0.0 0.00 0.03 0.00 92 1014.2
20260830230255 16 296 0.0 0.0 0.00 0.03 0.00 92 1014.2
20260830230026 15 296 0.0 0.0 0.00 0.03 0.00 92 1013.8
20260830225744 16 296 0.0 0.0 0.00 0.03 0.00 92 1014.2
20260830225224 16 296 0.0 0.0 0.00 0.03 0.00 92 1014.1
20260830224718 16 296 0.0 0.0 0.00 0.03 0.00 92 1014.2
20260830224611 16 296 0.0 0.0 0.00 0.03 0.00 92 1013.7
20260830224212 16 296 0.0 0.0 0.00 0.03 0.00 91 1014.2
20260830223707 16 296 0.0 0.0 0.00 0.03 0.00 91 1014.2
20260830223153 16 296 0.0 0.0 0.00 0.03 0.00 91 1014.3
20260830223032 16 296 0.0 0.0 0.00 0.03 0.00 91 1013.9
20260830221634 16 296 0.0 0.0 0.00 0.03 0.00 90 1014.3
20260830221510 16 296 0.0 0.0 0.00 0.03 0.00 90 1013.9
20260830221124 16 296 0.0 0.0 0.00 0.03 0.00 90 1014.3
20260830220614 16 296 0.0 0.0 0.00 0.03 0.00 89 1014.3
20260830220119 16 296 0.0 0.0 0.00 0.03 0.00 89 1014.3
20260830220057 16 296 0.0 0.0 0.00 0.03 0.00 89 1013.8
20260830215604 16 296 0.0 0.0 0.00 0.03 0.03 89 1014.3
20260830215044 16 296 0.0 0.0 0.00 0.03 0.03 89 1014.3
20260830214530 17 296 0.0 0.0 0.00 0.03 0.03 88 1014.3
20260830214504 16 296 0.0 0.0 0.00 0.03 0.03 88 1013.7
20260830213504 17 296 0.0 0.0 0.00 0.03 0.03 87 1014.3
20260830213028 17 296 0.0 0.0 0.00 0.03 0.03 87 1013.9
20260830212447 17 296 0.0 0.0 0.00 0.03 0.03 86 1014.3
20260830211934 17 296 0.0 0.0 0.00 0.03 0.03 86 1014.3
20260830211507 17 296 0.0 0.0 0.00 0.03 0.03 85 1013.7
20260830210917 18 296 0.0 0.0 0.00 0.03 0.03 85 1014.3
20260830210402 18 296 0.0 0.0 0.00 0.03 0.03 85 1014.3
20260830210031 18 296 0.0 0.0 0.00 0.03 0.03 84 1013.8
20260830205848 18 296 0.0 0.0 0.00 0.03 0.03 84 1014.3
20260830205338 18 296 0.0 0.0 0.00 0.03 0.03 83 1014.3
20260830204835 18 296 0.0 3.2 0.00 0.03 0.03 83 1014.2
20260830204503 18 296 0.0 3.2 0.00 0.03 0.03 83 1013.7
20260830204324 18 296 0.0 3.2 0.00 0.03 0.03 83 1014.2
20260830203329 18 296 3.2 9.7 0.00 0.03 0.03 83 1014.2
20260830203045 18 296 0.0 9.7 0.00 0.03 0.03 83 1013.7
20260830202803 18 296 4.8 14.5 0.00 0.03 0.03 84 1014.2
20260830201754 18 114 0.0 3.2 0.00 0.03 0.03 84 1013.9
20260830201526 18 114 0.0 3.2 0.00 0.03 0.03 84 1013.4
20260830201246 18 114 0.0 3.2 0.00 0.03 0.03 84 1013.7
20260830200731 18 114 0.0 3.2 0.00 0.03 0.03 84 1013.7
20260830200225 18 114 0.0 1.6 0.00 0.03 0.03 84 1013.6
20260830200100 18 114 0.0 1.6 0.00 0.03 0.03 84 1013.2
20260830195215 18 114 0.0 6.4 0.00 0.03 0.03 83 1013.6
20260830194718 19 114 0.0 6.4 0.00 0.03 0.03 83 1013.6
20260830194541 18 114 1.6 6.4 0.00 0.03 0.03 83 1013.2
20260830194208 19 187 0.0 0.0 0.00 0.03 0.03 83 1013.6
20260830193647 19 187 0.0 0.0 0.00 0.03 0.03 82 1013.7
20260830193119 19 187 0.0 0.0 0.00 0.03 0.03 82 1013.3
20260830192639 19 187 0.0 0.0 0.00 0.03 0.03 82 1013.7
20260830191655 19 187 0.0 0.0 0.00 0.03 0.03 81 1013.3
20260830191618 19 187 0.0 0.0 0.00 0.03 0.03 81 1013.7
20260830191114 19 187 0.0 0.0 0.00 0.03 0.03 81 1013.7
20260830190558 19 187 0.0 1.6 0.00 0.03 0.03 80 1013.7
20260830190018 19 187 0.0 3.2 0.00 0.03 0.03 80 1013.3